"datetime","# probes","# resolvers","can_ipv6","can_ipv6_prbs","can_tcp","can_tcp_prbs","can_tcp6","can_tcp6_prbs","does_ecs","does_ecs_prbs","does_flagday","does_flagday_prbs","does_rov4","does_rov4_prbs","does_rov6","does_rov6_prbs","does_qnamemin","doesnt_qnamemin","does_qnamemin_prbs","doesnt_qnamemin_prbs","does_nxdomain","doesnt_nxdomain","does_nxdomain_prbs","doesnt_nxdomain_prbs","has_ta_19036","hasnt_ta_19036","has_ta_19036_prbs","hasnt_ta_19036_prbs","has_ta_20326","hasnt_ta_20326","has_ta_20326_prbs","hasnt_ta_20326_prbs","can_rsamd5","cannot_rsamd5","broken_rsamd5","can_rsamd5_prbs","cannot_rsamd5_prbs","broken_rsamd5_prbs","can_dsa","cannot_dsa","broken_dsa","can_dsa_prbs","cannot_dsa_prbs","broken_dsa_prbs","can_rsasha1","cannot_rsasha1","broken_rsasha1","can_rsasha1_prbs","cannot_rsasha1_prbs","broken_rsasha1_prbs","can_dsansec3","cannot_dsansec3","broken_dsansec3","can_dsansec3_prbs","cannot_dsansec3_prbs","broken_dsansec3_prbs","can_rsansec3","cannot_rsansec3","broken_rsansec3","can_rsansec3_prbs","cannot_rsansec3_prbs","broken_rsansec3_prbs","can_rsasha256","cannot_rsasha256","broken_rsasha256","can_rsasha256_prbs","cannot_rsasha256_prbs","broken_rsasha256_prbs","can_rsasha512","cannot_rsasha512","broken_rsasha512","can_rsasha512_prbs","cannot_rsasha512_prbs","broken_rsasha512_prbs","can_eccgost","cannot_eccgost","broken_eccgost","can_eccgost_prbs","cannot_eccgost_prbs","broken_eccgost_prbs","can_ecdsa256","cannot_ecdsa256","broken_ecdsa256","can_ecdsa256_prbs","cannot_ecdsa256_prbs","broken_ecdsa256_prbs","can_ecdsa384","cannot_ecdsa384","broken_ecdsa384","can_ecdsa384_prbs","cannot_ecdsa384_prbs","broken_ecdsa384_prbs","can_ed25519","cannot_ed25519","broken_ed25519","can_ed25519_prbs","cannot_ed25519_prbs","broken_ed25519_prbs","can_ed448","cannot_ed448","broken_ed448","can_ed448_prbs","cannot_ed448_prbs","broken_ed448_prbs","can_gost","cannot_gost","broken_gost","can_gost_prbs","cannot_gost_prbs","broken_gost_prbs","can_sha384","cannot_sha384","broken_sha384","can_sha384_prbs","cannot_sha384_prbs","broken_sha384_prbs","is_internal","is_forwarding","is_external","is_internal_prbs","is_forwarding_prbs","is_external_prbs"
2017-06-20T23:59:50Z,21,33,18,14,33,21,18,13,0,6,0,0,0,0,0,0,0,33,0,21,0,33,0,21,0,0,0,0,0,0,0,0,6,27,0,4,19,6,7,26,0,5,18,0,7,26,0,9,16,0,7,26,0,5,18,0,7,26,0,8,16,0,7,26,0,8,16,0,7,26,0,8,16,0,0,33,0,3,21,0,7,26,0,8,16,0,7,26,0,8,16,0,0,33,0,0,21,0,0,33,0,0,21,0,0,33,0,6,21,0,7,26,0,8,16,0,32,0,1,21,3,6
2017-06-21T23:59:48Z,22,34,19,15,34,22,19,15,0,5,0,0,0,0,0,0,0,34,0,22,0,34,0,22,0,0,0,0,0,0,0,0,6,28,0,4,20,7,7,27,0,5,19,2,7,27,0,8,17,2,7,27,0,5,19,2,7,27,0,8,17,2,7,27,0,8,17,2,7,27,0,8,17,2,0,34,0,3,22,2,7,27,0,8,17,2,7,27,0,8,17,2,0,34,0,0,22,2,0,34,0,0,22,2,0,34,0,6,22,2,7,27,0,8,17,2,33,0,1,22,3,6
2017-06-22T23:59:48Z,22,34,19,15,34,22,19,14,0,5,0,0,0,0,0,0,0,34,0,22,0,34,0,22,0,0,0,0,0,0,0,0,7,27,0,5,19,7,7,27,0,5,19,2,8,26,0,9,16,2,7,27,0,5,19,2,8,26,0,9,16,2,8,26,0,9,16,2,8,26,0,9,16,2,0,34,0,3,22,2,8,26,0,9,16,2,8,26,0,9,16,2,0,34,0,0,22,2,0,34,0,0,22,2,1,33,0,7,21,2,8,26,0,9,16,2,33,0,1,22,3,6
2017-06-23T23:59:50Z,21,35,20,14,35,21,20,14,0,5,0,0,0,0,0,0,0,35,0,21,0,35,0,21,0,0,0,0,0,0,0,0,6,29,0,4,19,5,7,28,0,5,18,0,7,28,0,8,16,0,7,28,0,5,18,0,7,28,0,8,16,0,7,28,0,8,16,0,7,28,0,8,16,0,0,35,0,3,21,0,7,28,0,8,16,0,7,28,0,8,16,0,0,35,0,0,21,0,0,35,0,0,21,0,0,35,0,6,21,0,7,28,0,9,16,0,34,0,1,21,3,6
2017-06-24T23:59:51Z,20,34,20,14,34,20,19,14,0,5,0,0,0,0,0,0,0,34,0,20,0,33,0,19,0,0,0,0,0,0,0,0,6,28,0,4,18,5,6,28,0,4,18,0,6,28,0,7,16,0,6,28,0,4,18,0,6,28,0,7,16,0,6,28,0,7,16,0,6,28,0,7,16,0,0,34,0,3,20,0,6,28,0,7,16,0,6,28,0,7,16,0,0,34,0,0,20,0,0,34,0,0,20,0,0,34,0,6,20,0,6,28,0,7,16,0,33,0,1,20,3,6
2017-06-25T23:59:50Z,20,34,20,14,34,20,20,14,0,5,0,0,0,0,0,0,0,34,0,20,0,34,0,20,0,0,0,0,0,0,0,0,6,28,0,4,18,5,6,28,0,4,18,0,6,28,0,7,16,0,6,28,0,4,18,0,6,28,0,7,16,0,6,28,0,7,16,0,6,28,0,7,16,0,0,34,0,3,20,0,6,28,0,7,16,0,6,28,0,7,16,0,0,34,0,0,20,0,0,34,0,0,20,0,0,34,0,6,20,0,6,28,0,7,16,0,33,0,1,20,3,6
2017-06-26T23:59:51Z,21,35,21,15,35,21,21,15,1,6,0,0,0,0,0,0,0,35,0,21,0,35,0,21,0,0,0,0,0,0,0,0,7,28,0,5,18,5,7,28,0,5,18,0,8,27,0,9,15,0,7,28,0,5,18,0,8,27,0,9,15,0,8,27,0,9,15,0,8,27,0,9,15,0,0,35,0,3,21,0,8,27,0,9,15,0,8,27,0,9,15,0,0,35,0,0,21,0,0,35,0,0,21,0,1,34,0,7,20,0,8,27,0,9,15,0,34,0,1,21,3,6
2017-06-27T23:59:50Z,20,34,20,14,34,20,20,14,0,5,0,0,0,0,0,0,0,34,0,20,0,34,0,20,0,0,0,0,0,0,0,0,6,28,0,4,18,5,7,27,0,5,17,0,7,27,0,8,15,0,7,27,0,5,17,0,7,27,0,8,15,0,7,27,0,8,15,0,7,27,0,8,15,0,0,34,0,3,20,0,7,27,0,8,15,0,7,27,0,8,15,0,0,34,0,0,20,0,0,34,0,0,20,0,0,34,0,6,20,0,7,27,0,9,15,0,33,0,1,20,3,6
2017-06-28T23:59:50Z,21,35,20,14,35,21,20,13,0,5,0,0,0,0,0,0,0,35,0,21,0,35,0,21,0,0,0,0,0,0,0,0,6,28,0,4,18,5,7,27,0,5,17,0,7,27,0,8,15,0,7,27,0,5,17,0,7,27,0,8,15,0,7,27,0,8,15,0,7,27,0,8,15,0,0,35,0,3,21,0,7,27,0,8,15,0,7,27,0,8,15,0,0,35,0,0,21,0,0,35,0,0,21,0,0,35,0,6,21,0,7,27,0,8,15,0,34,0,1,21,3,6
2017-06-29T23:59:49Z,20,34,20,14,34,20,20,14,1,6,0,0,0,0,0,0,0,34,0,20,0,34,0,20,0,0,0,0,0,0,0,0,6,27,0,4,17,6,7,26,0,5,16,0,7,26,0,8,14,0,7,26,0,5,16,0,7,26,0,8,14,0,7,26,0,8,14,0,7,26,0,8,14,0,0,34,0,3,20,0,7,26,0,8,14,0,7,26,0,8,14,0,0,34,0,0,20,0,0,34,0,0,20,0,0,34,0,6,20,0,7,26,0,8,14,0,33,0,1,20,3,6
2017-06-30T23:59:49Z,20,33,19,14,33,20,19,13,1,6,0,0,0,0,0,0,0,33,0,20,0,33,0,20,0,0,0,0,0,0,0,0,7,25,0,5,16,5,7,25,0,5,16,0,8,24,0,9,13,0,7,25,0,5,16,0,8,24,0,9,13,0,8,24,0,9,13,0,8,24,0,9,13,0,0,33,0,3,20,0,8,24,0,9,13,0,8,24,0,9,13,0,0,33,0,0,20,0,0,33,0,0,20,0,1,32,0,7,19,0,8,24,0,9,13,0,32,0,1,20,3,6
2017-07-01T23:59:48Z,19,32,18,13,31,19,18,13,0,5,0,0,0,0,0,0,0,32,0,19,0,32,0,19,0,0,0,0,0,0,0,0,6,25,0,4,16,5,7,24,0,5,15,0,7,24,0,8,13,0,7,24,0,5,15,0,7,24,0,8,13,0,7,24,0,8,13,0,7,24,0,8,13,0,0,32,0,3,19,0,7,24,0,8,13,0,7,24,0,8,13,0,0,32,0,0,19,0,0,32,0,0,19,0,0,32,0,6,19,0,7,24,0,8,13,0,31,0,1,19,3,6
2017-07-02T23:59:48Z,19,32,18,13,31,19,18,12,1,5,0,0,0,0,0,0,0,32,0,19,0,32,0,19,0,0,0,0,0,0,0,0,6,25,0,4,16,5,7,24,0,5,15,0,7,24,0,8,13,0,7,24,0,5,15,0,7,24,0,8,13,0,7,24,0,8,13,0,7,24,0,8,13,0,0,32,0,3,19,0,7,24,0,8,13,0,7,24,0,8,13,0,0,32,0,0,19,0,0,32,0,0,19,0,0,32,0,6,19,0,7,24,0,9,13,0,31,0,1,19,3,6
2017-07-03T23:59:51Z,21,35,20,14,35,21,20,14,0,5,0,0,0,0,0,0,0,35,0,21,0,35,0,21,0,0,0,0,0,0,0,0,6,28,0,4,18,5,7,27,0,5,17,0,7,27,0,8,15,0,7,27,0,5,17,0,7,27,0,8,15,0,7,27,0,8,15,0,7,27,0,8,15,0,0,35,0,3,21,0,7,27,0,8,15,0,7,27,0,8,15,0,0,35,0,0,21,0,0,35,0,0,21,0,0,35,0,6,21,0,7,27,0,8,15,0,34,0,1,21,3,6
2017-07-04T23:59:18Z,22,35,20,15,35,22,20,14,2,6,0,0,0,0,0,0,0,35,0,22,0,35,0,22,0,0,0,0,0,0,0,0,7,27,0,5,18,5,7,27,0,5,18,0,8,26,0,9,15,0,7,27,0,5,18,0,8,26,0,9,15,0,8,26,0,9,15,0,8,26,0,9,15,0,0,35,0,3,22,0,8,26,0,9,15,0,8,26,0,9,15,0,0,35,0,0,22,0,0,35,0,0,22,0,1,34,0,7,21,0,8,26,0,9,15,0,33,1,1,21,4,6
2017-07-05T23:59:16Z,19,32,18,13,32,19,18,12,0,5,0,0,0,0,0,0,0,32,0,19,0,32,0,19,0,0,0,0,0,0,0,0,6,25,0,4,16,5,7,24,0,5,15,0,7,24,0,8,13,0,7,24,0,5,15,0,7,24,0,8,13,0,7,24,0,8,13,0,7,24,0,8,13,0,0,32,0,3,19,0,7,24,0,9,13,0,7,24,0,9,13,0,0,32,0,0,19,0,0,32,0,0,19,0,0,32,0,6,19,0,7,24,0,8,13,0,31,0,1,19,3,6
2017-07-06T23:59:15Z,18,30,16,12,30,18,16,10,0,5,0,0,0,0,0,0,0,30,0,18,0,29,0,17,0,0,0,0,0,0,0,0,6,23,0,4,15,5,7,22,0,5,14,0,7,22,0,8,12,0,7,22,0,5,14,0,7,22,0,8,12,0,7,22,0,8,12,0,7,22,0,8,12,0,0,30,0,3,18,0,7,22,0,8,12,0,7,22,0,8,12,0,0,30,0,0,18,0,0,30,0,0,18,0,0,30,0,6,18,0,7,22,0,8,12,0,29,0,1,18,3,6
2017-07-07T23:59:17Z,18,30,16,12,30,18,16,12,0,5,0,0,0,0,0,0,0,30,0,18,0,30,0,18,0,0,0,0,0,0,0,0,6,23,0,4,15,5,7,22,0,5,14,0,7,22,0,8,12,0,7,22,0,5,14,0,7,22,0,8,12,0,7,22,0,8,12,0,7,22,0,8,12,0,0,30,0,3,18,0,7,22,0,9,12,0,7,22,0,9,12,0,0,30,0,0,18,0,0,30,0,0,18,0,0,30,0,6,18,0,7,22,0,8,12,0,29,0,1,18,3,6
2017-07-08T23:59:14Z,18,30,16,12,30,18,16,12,0,6,0,0,0,0,0,0,0,30,0,18,0,30,0,18,0,0,0,0,0,0,0,0,6,23,0,4,15,6,7,22,0,5,14,0,7,22,0,9,12,0,7,22,0,5,14,0,7,22,0,8,12,0,7,22,0,8,12,0,7,22,0,8,12,0,0,30,0,3,18,0,7,22,0,8,12,0,7,22,0,8,12,0,0,30,0,0,18,0,0,30,0,0,18,0,0,30,0,6,18,0,7,22,0,8,12,0,29,0,1,18,3,6
2017-07-09T23:59:16Z,18,29,15,12,29,18,15,11,0,5,0,0,0,0,0,0,0,29,0,18,0,29,0,18,0,0,0,0,0,0,0,0,6,22,0,4,15,5,7,21,0,5,14,0,7,21,0,8,12,0,7,21,0,5,14,0,7,21,0,9,12,0,7,21,0,9,12,0,7,21,0,9,12,0,0,29,0,3,18,0,7,21,0,8,12,0,7,21,0,8,12,0,0,29,0,0,18,0,0,29,0,0,18,0,0,29,0,6,18,0,7,21,0,8,12,0,28,0,1,18,4,6
2017-07-10T23:59:55Z,22,37,21,15,37,22,21,15,0,5,0,0,0,0,0,0,0,37,0,22,0,37,0,22,0,0,0,0,0,0,0,0,6,30,0,4,19,5,7,29,0,5,18,0,7,29,0,8,16,0,7,29,0,5,18,0,7,29,0,8,16,0,7,29,0,8,16,0,7,29,0,8,16,0,0,37,0,3,22,0,7,29,0,8,16,0,7,29,0,8,16,0,0,37,0,0,22,0,0,37,0,0,22,0,0,37,0,6,22,0,7,29,0,8,16,0,35,1,1,22,4,6
2017-07-11T23:59:54Z,21,36,20,14,36,21,19,13,0,5,0,0,0,0,0,0,0,36,0,21,0,36,0,21,0,0,0,0,0,0,0,0,6,29,0,4,18,5,7,28,0,5,17,0,7,28,0,8,15,0,7,28,0,5,17,0,7,28,0,8,15,0,7,28,0,8,15,0,7,28,0,8,15,0,0,36,0,3,21,0,7,28,0,8,15,0,7,28,0,8,15,0,0,36,0,0,21,0,0,36,0,0,21,0,0,36,0,6,21,0,7,28,0,8,15,0,35,0,1,21,3,6
2017-07-12T23:59:55Z,22,37,19,14,37,22,19,13,0,6,0,0,0,0,0,0,0,37,0,22,0,37,0,22,0,0,0,0,0,0,0,0,7,29,0,5,19,6,8,28,0,6,18,0,8,28,0,9,16,0,8,28,0,6,18,0,8,28,0,9,16,0,8,28,0,9,16,0,8,28,0,9,16,0,0,37,0,3,22,0,7,29,0,8,16,0,7,29,0,8,16,0,0,37,0,0,22,0,0,37,0,0,22,0,0,37,0,6,22,0,7,29,0,8,16,0,36,0,1,22,4,6
2017-07-13T23:59:55Z,22,38,20,14,38,22,20,14,0,5,0,0,0,0,0,0,0,38,0,22,0,38,0,22,0,0,0,0,0,0,0,0,7,30,0,5,19,5,8,29,0,6,18,0,8,29,0,9,16,0,8,29,0,6,18,0,8,29,0,10,16,0,8,29,0,10,16,0,8,29,0,10,16,0,0,38,0,3,22,0,7,30,0,8,16,0,7,30,0,8,16,0,0,38,0,0,22,0,0,38,0,0,22,0,0,38,0,6,22,0,7,30,0,9,16,0,37,0,1,22,3,6
2017-07-14T23:59:55Z,23,39,21,15,39,23,21,14,1,6,0,0,0,0,0,0,0,39,0,23,0,39,0,23,0,0,0,0,0,0,0,0,8,30,0,6,19,5,8,30,0,6,19,0,9,29,0,10,16,0,8,30,0,6,19,0,9,29,0,10,16,0,9,29,0,10,16,0,9,29,0,10,16,0,0,39,0,3,23,0,8,30,0,9,16,0,8,30,0,9,16,0,0,39,0,0,23,0,0,39,0,0,23,0,1,38,0,7,22,0,8,30,0,9,16,0,37,1,1,22,4,6
2017-07-15T23:59:54Z,22,38,20,14,38,22,20,13,0,6,0,0,0,0,0,0,0,38,0,22,0,38,0,22,0,0,0,0,0,0,0,0,7,30,0,5,19,6,8,29,0,6,18,0,8,29,0,10,16,0,8,29,0,6,18,0,8,29,0,10,16,0,8,29,0,10,16,0,8,29,0,10,16,0,0,38,0,3,22,0,7,30,0,8,16,0,7,30,0,8,16,0,0,38,0,0,22,0,0,38,0,0,22,0,0,38,0,6,22,0,7,30,0,9,16,0,37,0,1,22,3,6
2017-07-16T23:59:54Z,22,38,20,14,38,22,20,13,0,5,0,0,0,0,0,0,0,38,0,22,0,37,0,21,0,0,0,0,0,0,0,0,7,30,0,5,19,5,8,29,0,6,18,0,8,29,0,9,16,0,8,29,0,6,18,0,8,29,0,9,16,0,8,29,0,9,16,0,8,29,0,9,16,0,0,38,0,3,22,0,7,30,0,8,16,0,7,30,0,8,16,0,0,38,0,0,22,0,0,38,0,0,22,0,0,38,0,6,22,0,7,30,0,8,16,0,37,0,1,22,3,6
2017-07-17T23:59:54Z,22,38,20,14,38,22,20,13,0,5,0,0,0,0,0,0,0,38,0,22,0,38,0,22,0,0,0,0,0,0,0,0,7,30,0,5,19,5,8,29,0,6,18,0,8,29,0,9,16,0,8,29,0,6,18,0,8,29,0,9,16,0,8,29,0,9,16,0,8,29,0,9,16,0,0,38,0,3,22,0,7,30,0,8,16,0,7,30,0,8,16,0,0,38,0,0,22,0,0,38,0,0,22,0,0,38,0,6,22,0,7,30,0,8,16,0,37,0,1,22,3,6
2017-07-18T23:59:54Z,22,38,20,14,38,22,20,13,0,5,0,0,0,0,0,0,0,38,0,22,0,38,0,22,0,0,0,0,0,0,0,0,7,30,0,5,19,5,8,29,0,6,18,0,8,29,0,9,16,0,8,29,0,6,18,0,8,29,0,9,16,0,8,29,0,9,16,0,8,29,0,9,16,0,0,38,0,3,22,0,7,30,0,8,16,0,7,30,0,8,16,0,0,38,0,0,22,0,0,38,0,0,22,0,0,38,0,6,22,0,7,30,0,9,16,0,37,0,1,22,3,6
2017-07-19T23:59:56Z,24,40,22,16,40,24,22,15,1,6,0,0,0,0,0,0,0,40,0,24,0,40,0,24,0,0,0,0,0,0,0,0,8,31,0,6,20,5,8,31,0,6,20,0,9,30,0,10,17,0,8,31,0,6,20,0,9,30,0,10,17,0,9,30,0,10,17,0,9,30,0,10,17,0,0,40,0,3,24,0,8,31,0,9,17,0,8,31,0,9,17,0,0,40,0,0,24,0,0,40,0,0,24,0,1,39,0,7,23,0,8,31,0,9,17,0,38,1,1,23,4,6
2017-07-20T23:59:54Z,22,38,20,14,38,22,20,13,0,5,0,0,0,0,0,0,0,38,0,22,0,38,0,22,0,0,0,0,0,0,0,0,7,30,0,5,19,5,8,29,0,6,18,0,8,29,0,9,16,0,8,29,0,6,18,0,8,29,0,10,16,0,8,29,0,10,16,0,8,29,0,10,16,0,0,38,0,3,22,0,7,30,0,8,16,0,7,30,0,8,16,0,0,38,0,0,22,0,0,38,0,0,22,0,0,38,0,6,22,0,7,30,0,8,16,0,37,0,1,22,3,6
2017-07-21T23:59:54Z,22,38,20,14,38,22,20,13,0,5,0,0,0,0,0,0,0,38,0,22,0,38,0,22,0,0,0,0,0,0,0,0,7,30,0,5,19,5,8,29,0,6,18,0,8,29,0,9,16,0,8,29,0,6,18,0,8,29,0,10,16,0,8,29,0,10,16,0,8,29,0,10,16,0,0,38,0,3,22,0,7,30,0,8,16,0,7,30,0,8,16,0,0,38,0,0,22,0,0,38,0,0,22,0,0,38,0,6,22,0,7,30,0,8,16,0,37,0,1,22,3,6
2017-07-22T23:59:57Z,22,38,20,14,38,22,20,13,0,6,0,0,0,0,0,0,0,38,0,22,0,38,0,22,0,0,0,0,0,0,0,0,7,30,0,5,19,6,8,29,0,6,18,0,8,29,0,10,16,0,8,29,0,6,18,0,8,29,0,10,16,0,8,29,0,10,16,0,8,29,0,10,16,0,0,38,0,3,22,0,7,30,0,8,16,0,7,30,0,8,16,0,0,38,0,0,22,0,0,38,0,0,22,0,0,38,0,6,22,0,7,30,0,8,16,0,37,0,1,22,3,6
2017-07-23T23:59:54Z,24,40,22,16,40,24,22,15,1,6,0,0,0,0,0,0,0,40,0,24,0,40,0,24,0,0,0,0,0,0,0,0,8,31,0,6,20,5,8,31,0,6,20,0,9,30,0,10,17,0,8,31,0,6,20,0,9,30,0,11,17,0,9,30,0,11,17,0,9,30,0,11,17,0,0,40,0,3,24,0,8,31,0,9,17,0,8,31,0,9,17,0,0,40,0,0,24,0,0,40,0,0,24,0,1,39,0,7,23,0,8,31,0,9,17,0,38,1,1,24,4,6
2017-07-24T23:59:57Z,22,39,21,14,38,22,21,13,0,6,0,0,0,0,0,0,0,39,0,22,0,39,0,22,0,0,0,0,0,0,0,0,7,31,0,5,19,6,8,30,0,6,18,0,8,30,0,9,16,0,8,30,0,6,18,0,8,30,0,10,16,0,8,30,0,10,16,0,8,30,0,10,16,0,0,39,0,3,22,0,7,31,0,8,16,0,7,31,0,8,16,0,0,39,0,0,22,0,0,39,0,0,22,0,0,39,0,6,22,0,7,31,0,8,16,0,38,0,1,22,3,6
2017-07-25T23:59:56Z,22,37,19,14,37,22,19,13,0,5,0,0,0,0,0,0,0,37,0,22,0,37,0,22,0,0,0,0,0,0,0,0,7,29,0,5,19,5,8,28,0,6,18,0,8,28,0,9,16,0,8,28,0,6,18,0,8,28,0,10,16,0,8,28,0,10,16,0,8,28,0,10,16,0,0,37,0,3,22,0,7,29,0,8,16,0,7,29,0,8,16,0,0,37,0,0,22,0,0,37,0,0,22,0,0,37,0,6,22,0,7,29,0,8,16,0,36,0,1,22,3,6
2017-07-26T23:59:56Z,22,37,19,14,37,22,19,14,0,5,0,0,0,0,0,0,0,37,0,22,0,37,0,22,0,0,0,0,0,0,0,0,7,29,0,5,19,5,8,28,0,6,18,0,8,28,0,9,16,0,8,28,0,6,18,0,8,28,0,10,16,0,8,28,0,10,16,0,8,28,0,10,16,0,0,37,0,3,22,0,7,29,0,8,16,0,7,29,0,8,16,0,0,37,0,0,22,0,0,37,0,0,22,0,0,37,0,6,22,0,7,29,0,8,16,0,36,0,1,22,3,6
2017-07-27T23:59:56Z,22,36,18,14,36,22,18,14,0,5,0,0,0,0,0,0,0,36,0,22,0,36,0,22,0,0,0,0,0,0,0,0,7,28,0,5,19,5,8,27,0,6,18,0,8,27,0,9,16,0,8,27,0,6,18,0,8,27,0,10,16,0,8,27,0,10,16,0,8,27,0,10,16,0,0,36,0,3,22,0,7,28,0,8,16,0,7,28,0,8,16,0,0,36,0,0,22,0,0,36,0,0,22,0,0,36,0,6,22,0,7,28,0,8,16,0,35,0,1,22,3,6
2017-07-28T23:59:55Z,22,37,19,14,37,22,19,13,0,5,0,0,0,0,0,0,0,37,0,22,0,36,0,21,0,0,0,0,0,0,0,0,7,29,0,5,19,5,8,28,0,6,18,0,8,28,0,9,16,0,8,28,0,6,18,0,8,28,0,9,16,0,8,28,0,9,16,0,8,28,0,9,16,0,0,37,0,3,22,0,7,29,0,8,16,0,7,29,0,8,16,0,0,37,0,0,22,0,0,37,0,0,22,0,0,37,0,6,22,0,7,29,0,8,16,0,36,0,1,22,3,6
2017-07-29T23:59:55Z,22,37,19,14,36,22,19,14,0,5,0,0,0,0,0,0,0,37,0,22,0,37,0,22,0,0,0,0,0,0,0,0,7,29,0,5,19,5,8,28,0,6,18,0,8,28,0,9,16,0,8,28,0,6,18,0,8,28,0,10,16,0,8,28,0,10,16,0,8,28,0,10,16,0,0,37,0,3,22,0,7,29,0,8,16,0,7,29,0,8,16,0,0,37,0,0,22,0,0,37,0,0,22,0,0,37,0,6,22,0,7,29,0,8,16,0,36,0,1,22,3,6
2017-07-30T23:59:55Z,22,37,19,14,37,22,19,13,0,5,0,0,0,0,0,0,0,37,0,22,0,37,0,22,0,0,0,0,0,0,0,0,7,29,0,5,19,5,8,28,0,6,18,0,8,28,0,9,16,0,8,28,0,6,18,0,8,28,0,9,16,0,8,28,0,9,16,0,8,28,0,9,16,0,0,37,0,3,22,0,7,29,0,8,16,0,7,29,0,8,16,0,0,37,0,0,22,0,0,37,0,0,22,0,0,37,0,6,22,0,7,29,0,8,16,0,36,0,1,22,3,6
2017-07-31T23:59:54Z,22,37,19,14,37,22,19,14,0,5,0,0,0,0,0,0,0,37,0,22,0,37,0,22,0,0,0,0,0,0,0,0,7,29,0,5,19,5,8,28,0,6,18,0,8,28,0,9,16,0,8,28,0,6,18,0,8,28,0,9,16,0,8,28,0,9,16,0,8,28,0,9,16,0,0,37,0,3,22,0,7,29,0,8,16,0,7,29,0,8,16,0,0,37,0,0,22,0,0,37,0,0,22,0,0,37,0,6,22,0,7,29,0,8,16,0,36,0,1,22,3,6
2017-08-01T23:59:57Z,22,38,20,14,38,22,20,14,0,5,0,0,0,0,0,0,0,38,0,22,0,38,0,22,0,0,0,0,0,0,0,0,7,30,0,5,19,5,8,29,0,6,18,0,8,29,0,9,16,0,8,29,0,6,18,0,8,29,0,9,16,0,8,29,0,9,16,0,8,29,0,9,16,0,0,38,0,3,22,0,7,30,0,8,16,0,7,30,0,8,16,0,0,38,0,0,22,0,0,38,0,0,22,0,0,38,0,6,22,0,7,30,0,8,16,0,37,0,1,22,3,6
2017-08-02T23:59:56Z,22,37,19,14,37,22,19,13,0,5,0,0,0,0,0,0,0,37,0,22,0,37,0,22,0,0,0,0,0,0,0,0,7,29,0,5,19,5,8,28,0,6,18,0,8,28,0,9,16,0,8,28,0,6,18,0,8,28,0,9,16,0,8,28,0,9,16,0,8,28,0,9,16,0,0,37,0,3,22,0,7,29,0,8,16,0,7,29,0,8,16,0,0,37,0,0,22,0,0,37,0,0,22,0,0,37,0,6,22,0,7,29,0,8,16,0,36,0,1,22,3,6
2017-08-03T23:59:56Z,22,36,18,14,35,22,18,13,1,6,0,0,0,0,0,0,0,36,0,22,0,36,0,22,0,0,0,0,0,0,0,0,8,27,0,6,18,5,8,27,0,6,18,0,9,26,0,10,15,0,8,27,0,6,18,0,9,26,0,11,15,0,9,26,0,11,15,0,9,26,0,11,15,0,0,36,0,3,22,0,8,27,0,9,15,0,8,27,0,9,15,0,0,36,0,0,22,0,0,36,0,0,22,0,1,35,0,7,21,0,8,27,0,10,15,0,35,0,1,22,3,6
2017-08-04T23:59:54Z,22,36,18,14,35,22,18,13,1,6,0,0,0,0,0,0,0,36,0,22,0,36,0,22,0,0,0,0,0,0,0,0,8,27,0,6,18,5,8,27,0,6,18,0,9,26,0,10,15,0,8,27,0,6,18,0,9,26,0,11,15,0,9,26,0,11,15,0,9,26,0,11,15,0,0,36,0,3,22,0,8,27,0,9,15,0,8,27,0,9,15,0,0,36,0,0,22,0,0,36,0,0,22,0,1,35,0,7,21,0,8,27,0,10,15,0,34,1,1,21,4,6
2017-08-05T23:59:56Z,21,35,17,13,35,21,17,12,0,5,0,0,0,0,0,0,0,35,0,21,0,35,0,21,0,0,0,0,0,0,0,0,7,27,0,5,18,5,8,26,0,6,17,0,8,26,0,9,15,0,8,26,0,6,17,0,8,26,0,10,15,0,8,26,0,10,15,0,8,26,0,10,15,0,0,35,0,3,21,0,7,27,0,8,15,0,7,27,0,8,15,0,0,35,0,0,21,0,0,35,0,0,21,0,0,35,0,6,21,0,7,27,0,8,15,0,34,0,1,21,3,6
2017-08-06T23:59:54Z,20,34,17,13,34,20,17,12,0,5,0,0,0,0,0,0,0,34,0,20,0,34,0,20,0,0,0,0,0,0,0,0,7,26,0,5,17,5,7,26,0,5,17,0,7,26,0,8,15,0,7,26,0,5,17,0,7,26,0,9,15,0,7,26,0,9,15,0,7,26,0,9,15,0,0,34,0,3,20,0,6,27,0,7,15,0,6,27,0,7,15,0,0,34,0,0,20,0,0,34,0,0,20,0,0,34,0,6,20,0,6,27,0,7,15,0,33,0,1,20,3,6
2017-08-07T23:59:55Z,22,36,18,14,36,22,18,14,0,5,0,0,0,0,0,0,0,36,0,22,0,36,0,22,0,0,0,0,0,0,0,0,7,28,0,5,19,5,8,27,0,6,18,0,8,27,0,9,16,0,8,27,0,6,18,0,8,27,0,10,16,0,8,27,0,10,16,0,8,27,0,10,16,0,0,36,0,3,22,0,7,28,0,8,16,0,7,28,0,8,16,0,0,36,0,0,22,0,0,36,0,0,22,0,0,36,0,6,22,0,7,28,0,8,16,0,34,1,1,22,4,6
2017-08-08T23:59:55Z,22,36,18,14,36,22,18,14,1,6,0,0,0,0,0,0,0,36,0,22,0,36,0,22,0,0,0,0,0,0,0,0,8,27,0,6,18,5,8,27,0,6,18,0,9,26,0,10,15,0,8,27,0,6,18,0,9,26,0,11,15,0,9,26,0,11,15,0,9,26,0,11,15,0,0,36,0,3,22,0,8,27,0,9,15,0,8,27,0,9,15,0,0,36,0,0,22,0,0,36,0,0,22,0,1,35,0,7,21,0,8,27,0,9,15,0,34,1,1,21,4,6
2017-08-09T23:59:56Z,21,35,17,13,34,21,17,12,0,5,0,0,0,0,0,0,0,35,0,21,0,35,0,21,0,0,0,0,0,0,0,0,7,27,0,5,18,5,8,26,0,6,17,0,8,26,0,9,15,0,8,26,0,6,17,0,8,26,0,10,15,0,8,26,0,10,15,0,8,26,0,10,15,0,0,35,0,3,21,0,7,27,0,8,15,0,7,27,0,8,15,0,0,35,0,0,21,0,0,35,0,0,21,0,0,35,0,6,21,0,7,27,0,8,15,0,34,0,1,21,3,6
2017-08-10T23:59:57Z,20,32,17,13,32,20,17,12,0,5,0,0,0,0,0,0,0,32,0,20,0,32,0,20,0,0,0,0,0,0,0,0,7,24,0,5,17,5,8,23,0,6,16,0,8,23,0,9,14,0,8,23,0,6,16,0,8,23,0,10,14,0,8,23,0,10,14,0,8,23,0,10,14,0,0,32,0,3,20,0,7,24,0,8,14,0,7,24,0,8,14,0,0,32,0,0,20,0,0,32,0,0,20,0,0,32,0,6,20,0,7,24,0,8,14,0,31,0,1,20,3,6
2017-08-11T23:59:56Z,21,33,18,14,33,21,18,13,0,5,0,0,0,0,0,0,0,33,0,21,0,33,0,21,0,0,0,0,0,0,0,0,7,25,0,5,18,5,8,24,0,6,17,0,8,24,0,9,15,0,8,24,0,6,17,0,8,24,0,10,15,0,8,24,0,10,15,0,8,24,0,10,15,0,0,33,0,3,21,0,7,25,0,8,15,0,7,25,0,8,15,0,0,33,0,0,21,0,0,33,0,0,21,0,0,33,0,6,21,0,7,25,0,8,15,0,32,0,1,21,3,6
2017-08-12T23:59:57Z,21,33,18,14,33,21,18,14,1,6,0,0,0,0,0,0,0,33,0,21,0,33,0,21,0,0,0,0,0,0,0,0,8,24,0,6,17,5,8,24,0,6,17,0,9,23,0,10,14,0,8,24,0,6,17,0,9,23,0,11,14,0,9,23,0,11,14,0,9,23,0,11,14,0,0,33,0,3,21,0,8,24,0,9,14,0,8,24,0,9,14,0,0,33,0,0,21,0,0,33,0,0,21,0,1,32,0,7,20,0,8,24,0,9,14,0,31,1,1,20,4,6
2017-08-13T23:59:57Z,20,32,17,13,32,20,16,12,0,6,0,0,0,0,0,0,0,32,0,20,0,32,0,20,0,0,0,0,0,0,0,0,7,24,0,5,17,6,8,23,0,6,16,0,8,23,0,10,14,0,8,23,0,6,16,0,8,23,0,10,14,0,8,23,0,10,14,0,8,23,0,10,14,0,0,32,0,3,20,0,7,24,0,8,14,0,7,24,0,8,14,0,0,32,0,0,20,0,0,32,0,0,20,0,0,32,0,6,20,0,7,24,0,8,14,0,31,0,1,20,3,6
2017-08-14T23:59:54Z,22,36,21,15,36,22,21,14,0,5,0,0,0,0,0,0,0,36,0,22,0,36,0,22,0,0,0,0,0,0,0,0,7,28,0,5,19,5,8,27,0,6,18,0,8,27,0,9,16,0,8,27,0,6,18,0,8,27,0,10,16,0,8,27,0,10,16,0,8,27,0,10,16,0,0,36,0,3,22,0,7,28,0,8,16,0,7,28,0,8,16,0,0,36,0,0,22,0,0,36,0,0,22,0,0,36,0,6,22,0,7,28,0,8,16,0,35,0,1,22,3,6
2017-08-15T23:59:57Z,23,37,22,16,36,23,22,16,0,5,0,0,0,0,0,0,0,37,0,23,0,37,0,23,0,0,0,0,0,0,0,0,7,29,0,5,20,5,8,28,0,6,19,0,8,28,0,9,17,0,8,28,0,6,19,0,8,28,0,10,17,0,8,28,0,10,17,0,8,28,0,10,17,0,0,37,0,3,23,0,7,29,0,8,17,0,7,29,0,8,17,0,0,37,0,0,23,0,0,37,0,0,23,0,0,37,0,6,23,0,7,29,0,8,17,0,36,0,1,23,3,6
2017-08-16T23:59:57Z,23,39,21,15,39,23,21,14,0,5,0,0,0,0,0,0,0,39,0,23,0,39,0,23,0,0,0,0,0,0,0,0,7,31,0,5,20,5,8,30,0,6,19,0,8,30,0,9,17,0,8,30,0,6,19,0,8,30,0,10,17,0,8,30,0,10,17,0,8,30,0,10,17,0,0,39,0,3,23,0,7,31,0,8,17,0,7,31,0,8,17,0,0,39,0,0,23,0,0,39,0,0,23,0,0,39,0,6,23,0,7,31,0,8,17,0,38,0,1,23,3,6
2017-08-17T23:59:54Z,25,41,23,17,41,25,23,16,1,6,0,0,0,0,0,0,0,41,0,25,0,41,0,25,0,0,0,0,0,0,0,0,8,32,0,6,21,5,8,32,0,6,21,0,9,31,0,10,18,0,8,32,0,6,21,0,9,31,0,11,18,0,9,31,0,11,18,0,9,31,0,11,18,0,0,41,0,3,25,0,8,32,0,9,18,0,8,32,0,9,18,0,0,41,0,0,25,0,0,41,0,0,25,0,1,40,0,7,24,0,8,32,0,9,18,0,40,0,1,25,3,6
2017-08-18T23:59:55Z,23,39,21,15,39,23,21,14,0,5,0,0,0,0,0,0,0,39,0,23,0,39,0,23,0,0,0,0,0,0,0,0,7,31,0,5,20,5,8,30,0,6,19,0,8,30,0,9,17,0,8,30,0,6,19,0,8,30,0,10,17,0,8,30,0,10,17,0,8,30,0,10,17,0,0,39,0,3,23,0,7,31,0,8,17,0,7,31,0,8,17,0,0,39,0,0,23,0,0,39,0,0,23,0,0,39,0,6,23,0,7,31,0,8,17,0,38,0,1,23,3,6
2017-08-19T23:59:56Z,23,39,21,15,39,23,21,14,0,6,0,0,0,0,0,0,0,39,0,23,0,39,0,23,0,0,0,0,0,0,0,0,7,31,0,5,20,6,8,30,0,6,19,0,8,30,0,10,17,0,8,30,0,6,19,0,8,30,0,10,17,0,8,30,0,10,17,0,8,30,0,10,17,0,0,39,0,3,23,0,7,31,0,8,17,0,7,31,0,8,17,0,0,39,0,0,23,0,0,39,0,0,23,0,0,39,0,7,23,0,7,31,0,8,17,0,38,0,1,23,3,6
2017-08-20T23:59:56Z,23,39,21,15,39,23,21,14,0,5,0,0,0,0,0,0,0,39,0,23,0,39,0,23,0,0,0,0,0,0,0,0,7,31,0,5,20,5,8,30,0,6,19,0,8,30,0,9,17,0,8,30,0,6,19,0,8,30,0,10,17,0,8,30,0,10,17,0,8,30,0,10,17,0,0,39,0,3,23,0,7,31,0,8,17,0,7,31,0,8,17,0,0,39,0,0,23,0,0,39,0,0,23,0,0,39,0,6,23,0,7,31,0,8,17,0,38,0,1,23,3,6
2017-08-21T23:59:57Z,23,39,21,15,39,23,21,15,0,6,0,0,0,0,0,0,0,39,0,23,0,39,0,23,0,0,0,0,0,0,0,0,7,31,0,5,20,6,8,30,0,6,19,0,8,30,0,10,17,0,8,30,0,6,19,0,8,30,0,10,17,0,8,30,0,10,17,0,8,30,0,10,17,0,0,39,0,3,23,0,7,31,0,8,17,0,7,31,0,8,17,0,0,39,0,0,23,0,0,39,0,0,23,0,0,39,0,6,23,0,7,31,0,8,17,0,38,0,1,23,3,6
2017-08-22T23:59:55Z,23,39,21,15,39,23,21,14,0,5,0,0,0,0,0,0,0,39,0,23,0,39,0,23,0,0,0,0,0,0,0,0,7,31,0,5,20,5,8,30,0,6,19,0,8,30,0,9,17,0,8,30,0,6,19,0,8,30,0,10,17,0,8,30,0,10,17,0,8,30,0,10,17,0,0,39,0,3,23,0,7,31,0,8,17,0,7,31,0,8,17,0,0,39,0,0,23,0,0,39,0,0,23,0,0,39,0,6,23,0,7,31,0,9,17,0,38,0,1,23,3,6
2017-08-23T23:59:55Z,23,39,21,15,39,23,21,15,0,5,0,0,0,0,0,0,0,39,0,23,0,39,0,23,0,0,0,0,0,0,0,0,7,31,0,5,20,5,8,30,0,6,19,0,8,30,0,9,17,0,8,30,0,6,19,0,8,30,0,10,17,0,8,30,0,10,17,0,8,30,0,10,17,0,0,39,0,3,23,0,7,31,0,8,17,0,7,31,0,8,17,0,0,39,0,0,23,0,0,39,0,0,23,0,0,39,0,6,23,0,7,31,0,8,17,0,38,0,1,23,3,6
2017-08-24T23:59:57Z,23,39,21,15,39,23,21,14,1,5,0,0,0,0,0,0,0,39,0,23,0,39,0,23,0,0,0,0,0,0,0,0,7,31,0,5,20,6,8,30,0,6,19,1,8,30,0,9,17,1,8,30,0,6,19,1,8,30,0,9,17,1,8,30,0,9,17,1,8,30,0,9,17,1,0,39,0,3,23,1,7,31,0,8,17,1,7,31,0,8,17,1,0,39,0,0,23,1,0,39,0,0,23,1,0,39,0,6,23,0,7,31,0,9,17,0,38,0,1,23,3,6
2017-08-25T23:59:57Z,22,37,19,14,37,22,19,14,0,6,0,0,0,0,0,0,0,37,0,22,0,37,0,22,0,0,0,0,0,0,0,0,7,29,0,5,19,6,8,28,0,6,18,0,8,28,0,10,16,0,8,28,0,6,18,0,8,28,0,10,16,0,8,28,0,10,16,0,8,28,0,10,16,0,0,37,0,3,22,0,7,29,0,9,16,0,7,29,0,9,16,0,0,37,0,0,22,0,0,37,0,0,22,0,0,37,0,7,22,0,7,29,0,8,16,0,36,0,1,22,3,6
2017-08-26T23:59:56Z,23,38,20,15,37,23,20,14,1,6,0,0,0,0,0,0,0,38,0,23,0,38,0,23,0,0,0,0,0,0,0,0,8,29,0,6,19,5,8,29,0,6,19,0,9,28,0,10,16,0,8,29,0,6,19,0,9,28,0,11,16,0,9,28,0,11,16,0,9,28,0,11,16,0,0,38,0,3,23,0,8,29,0,9,16,0,8,29,0,9,16,0,0,38,0,0,23,0,0,38,0,0,23,0,1,37,0,7,22,0,8,29,0,10,16,0,37,0,1,23,3,6
2017-08-27T23:59:54Z,22,37,19,14,37,22,19,13,0,5,0,0,0,0,0,0,0,37,0,22,0,37,0,22,0,0,0,0,0,0,0,0,7,29,0,5,19,5,8,28,0,6,18,0,8,28,0,9,16,0,8,28,0,7,18,0,8,28,0,9,16,1,8,28,0,9,16,1,8,28,0,9,16,1,0,37,0,3,22,1,7,29,0,8,16,1,7,29,0,8,16,0,0,37,0,0,22,0,0,37,0,0,22,0,0,37,0,6,22,0,7,29,0,8,16,0,36,0,1,22,3,6
2017-08-28T23:59:54Z,23,39,21,15,39,23,21,14,0,5,0,0,0,0,0,0,0,39,0,23,0,39,0,23,0,0,0,0,0,0,0,0,7,31,0,5,20,5,8,30,0,6,19,0,8,30,0,9,17,0,8,30,0,6,19,0,8,30,0,10,17,0,8,30,0,10,17,0,8,30,0,10,17,0,0,39,0,3,23,0,7,31,0,8,17,0,7,31,0,8,17,0,0,39,0,0,23,0,0,39,0,0,23,0,0,39,0,6,23,0,7,31,0,8,17,0,38,0,1,23,3,6